LHX1823 LEZL-EDDM

Flight info

Callsign LHX1823
Flight time N/A
Altitude 34000
Route HIJ N10 CJN L27 YAKXU N871 TOPTU DCT ESPAL DCT OMASI N871 DITON T103 BETOS BETOS1A
Aircraft A320/M-SDE3FGHIRWY/LB1

Departure

Time 2026-04-18 10:58
Airport Seville Airport (LEZL)

Arrival

Time N/A
Airport Munich Airport (EDDM)
Time Latitude Longitude Altitude Speed Heading
2026-04-18 10:26 37.42303 -5.89842 94 ft 0 kts 315°
2026-04-18 10:48 37.42298 -5.89836 96 ft 2 kts 314°
2026-04-18 10:48 37.42284 -5.89817 95 ft 3 kts 306°
2026-04-18 10:49 37.42273 -5.89796 92 ft 3 kts 293°
2026-04-18 10:49 37.42268 -5.89773 93 ft 3 kts 262°
2026-04-18 10:49 37.42272 -5.89756 94 ft 1 kts 212°
2026-04-18 10:49 37.42274 -5.89755 93 ft 0 kts 210°
2026-04-18 10:51 37.42256 -5.89770 93 ft 6 kts 217°
2026-04-18 10:51 37.42230 -5.89801 93 ft 5 kts 224°
2026-04-18 10:51 37.42210 -5.89825 93 ft 3 kts 224°
2026-04-18 10:52 37.42172 -5.89871 94 ft 11 kts 224°
2026-04-18 10:52 37.42107 -5.89953 94 ft 14 kts 225°
2026-04-18 10:52 37.42054 -5.90051 96 ft 8 kts 259°
2026-04-18 10:52 37.42027 -5.90094 95 ft 5 kts 194°
2026-04-18 10:53 37.41998 -5.90105 96 ft 5 kts 207°
2026-04-18 10:53 37.41980 -5.90181 95 ft 14 kts 266°
2026-04-18 10:53 37.41981 -5.90338 95 ft 21 kts 272°
2026-04-18 10:53 37.41984 -5.90530 93 ft 23 kts 271°
2026-04-18 10:54 37.41985 -5.90738 92 ft 25 kts 270°
2026-04-18 10:54 37.41970 -5.90941 93 ft 13 kts 246°
2026-04-18 10:54 37.41935 -5.91022 91 ft 10 kts 240°
2026-04-18 10:54 37.41900 -5.91094 90 ft 9 kts 238°
2026-04-18 10:55 37.41896 -5.91102 89 ft 0 kts 238°
2026-04-18 10:56 37.41867 -5.91163 91 ft 14 kts 238°
2026-04-18 10:57 37.41801 -5.91179 91 ft 9 kts 134°
2026-04-18 10:57 37.41788 -5.91113 92 ft 6 kts 92°
2026-04-18 10:57 37.41787 -5.91105 91 ft 0 kts 92°
2026-04-18 10:57 37.41786 -5.91050 93 ft 30 kts 91°
2026-04-18 10:58 37.41796 -5.90472 97 ft 99 kts 90°
2026-04-18 10:58 37.41802 -5.89362 101 ft 152 kts 89°
2026-04-18 10:58 37.41847 -5.87991 655 ft 150 kts 86°
2026-04-18 10:58 37.41906 -5.86743 1405 ft 136 kts 90°
2026-04-18 10:59 37.41876 -5.85547 1786 ft 142 kts 92°
2026-04-18 10:59 37.41818 -5.84213 1970 ft 164 kts 93°
2026-04-18 10:59 37.41754 -5.82624 2154 ft 196 kts 93°
2026-04-18 10:59 37.41865 -5.80822 2511 ft 216 kts 81°
2026-04-18 11:00 37.42180 -5.78877 2933 ft 237 kts 78°
2026-04-18 11:00 37.42723 -5.76880 3619 ft 248 kts 59°
2026-04-18 11:00 37.44038 -5.75362 4100 ft 271 kts 28°
2026-04-18 11:00 37.45780 -5.74368 4932 ft 277 kts 25°
2026-04-18 11:01 37.47542 -5.73342 5808 ft 281 kts 27°
2026-04-18 11:01 37.49315 -5.72283 6652 ft 284 kts 27°
2026-04-18 11:01 37.51108 -5.71198 7470 ft 287 kts 27°
2026-04-18 11:02 37.54741 -5.68989 9128 ft 293 kts 26°
2026-04-18 11:02 37.56582 -5.67870 9950 ft 296 kts 26°
2026-04-18 11:02 37.58461 -5.66732 10513 ft 308 kts 26°
2026-04-18 11:02 37.60468 -5.65518 10725 ft 331 kts 25°
2026-04-18 11:03 37.62619 -5.64217 10891 ft 354 kts 25°
2026-04-18 11:03 37.64896 -5.62837 11176 ft 371 kts 25°
2026-04-18 11:03 37.67245 -5.61412 11760 ft 376 kts 25°
2026-04-18 11:03 37.69614 -5.59974 12433 ft 380 kts 25°
2026-04-18 11:04 37.72009 -5.58516 13110 ft 384 kts 25°
2026-04-18 11:04 37.74422 -5.57043 13790 ft 387 kts 25°
2026-04-18 11:04 37.76856 -5.55555 14393 ft 390 kts 25°
2026-04-18 11:04 37.79310 -5.54057 14974 ft 393 kts 25°
2026-04-18 11:05 37.81787 -5.52545 15542 ft 397 kts 25°
2026-04-18 11:05 37.84280 -5.51022 16130 ft 400 kts 26°
2026-04-18 11:05 37.86795 -5.49485 16696 ft 403 kts 26°
2026-04-18 11:05 37.89329 -5.47935 17288 ft 406 kts 26°
2026-04-18 11:06 37.91879 -5.46371 17857 ft 409 kts 26°
2026-04-18 11:06 37.94452 -5.44795 18419 ft 412 kts 26°
2026-04-18 11:06 37.97046 -5.43210 18902 ft 415 kts 26°
2026-04-18 11:06 37.99661 -5.41611 19372 ft 419 kts 26°
2026-04-18 11:07 38.02294 -5.39999 19812 ft 422 kts 25°
2026-04-18 11:07 38.04948 -5.38372 20275 ft 425 kts 25°
2026-04-18 11:07 38.07621 -5.36727 20711 ft 428 kts 25°
2026-04-18 11:07 38.10311 -5.35068 21149 ft 431 kts 25°
2026-04-18 11:08 38.13025 -5.33397 21558 ft 435 kts 25°
2026-04-18 11:08 38.15755 -5.31714 21974 ft 438 kts 25°
2026-04-18 11:08 38.18503 -5.30022 22384 ft 440 kts 25°
2026-04-18 11:08 38.21268 -5.28316 22768 ft 443 kts 25°
2026-04-18 11:09 38.24054 -5.26592 23162 ft 446 kts 25°
2026-04-18 11:09 38.26846 -5.24863 23542 ft 448 kts 25°
2026-04-18 11:09 38.29660 -5.23120 23878 ft 451 kts 25°
2026-04-18 11:09 38.32487 -5.21365 24191 ft 453 kts 25°
2026-04-18 11:10 38.35324 -5.19602 24498 ft 455 kts 25°
2026-04-18 11:10 38.38177 -5.17831 24807 ft 457 kts 25°
2026-04-18 11:10 38.41041 -5.16055 25110 ft 459 kts 25°
2026-04-18 11:10 38.43910 -5.14276 25400 ft 460 kts 25°
2026-04-18 11:11 38.46803 -5.12479 25677 ft 463 kts 25°
2026-04-18 11:11 38.49646 -5.10542 25941 ft 465 kts 32°
2026-04-18 11:11 38.52256 -5.08081 26197 ft 468 kts 40°
2026-04-18 11:11 38.54618 -5.05200 26452 ft 471 kts 44°
2026-04-18 11:12 38.56952 -5.02265 26696 ft 472 kts 44°
2026-04-18 11:12 38.59304 -4.99316 26941 ft 474 kts 44°
2026-04-18 11:12 38.61664 -4.96363 27180 ft 476 kts 44°
2026-04-18 11:12 38.64033 -4.93396 27416 ft 477 kts 44°
2026-04-18 11:13 38.66406 -4.90414 27641 ft 479 kts 44°
2026-04-18 11:13 38.68780 -4.87420 27918 ft 479 kts 44°
2026-04-18 11:13 38.71148 -4.84430 28231 ft 479 kts 44°
2026-04-18 11:13 38.73514 -4.81437 28552 ft 478 kts 44°
2026-04-18 11:14 38.75882 -4.78442 28869 ft 478 kts 44°
2026-04-18 11:14 38.78247 -4.75450 29185 ft 477 kts 44°
2026-04-18 11:14 38.80613 -4.72465 29507 ft 477 kts 44°
2026-04-18 11:14 38.82975 -4.69482 29817 ft 477 kts 44°
2026-04-18 11:15 38.85335 -4.66497 30137 ft 477 kts 44°
2026-04-18 11:15 38.87694 -4.63507 30415 ft 476 kts 44°
2026-04-18 11:15 38.90048 -4.60519 30703 ft 476 kts 44°
2026-04-18 11:15 38.92393 -4.57531 30982 ft 475 kts 44°
2026-04-18 11:16 38.94735 -4.54541 31269 ft 474 kts 44°
2026-04-18 11:16 38.97072 -4.51554 31540 ft 473 kts 44°
2026-04-18 11:16 38.99404 -4.48569 31828 ft 473 kts 44°
2026-04-18 11:16 39.01733 -4.45586 32122 ft 472 kts 44°
2026-04-18 11:17 39.03305 -4.43573 32314 ft 472 kts 45°
2026-04-18 11:17 39.05624 -4.40603 32589 ft 471 kts 45°
2026-04-18 11:17 39.07948 -4.37633 32870 ft 471 kts 45°
2026-04-18 11:17 39.10269 -4.34664 33150 ft 470 kts 44°
2026-04-18 11:18 39.12586 -4.31701 33431 ft 470 kts 45°
2026-04-18 11:18 39.14898 -4.28741 33710 ft 469 kts 45°
2026-04-18 11:18 39.17210 -4.25772 33985 ft 469 kts 45°
2026-04-18 11:18 39.19519 -4.22798 34140 ft 470 kts 45°
2026-04-18 11:19 39.24150 -4.16809 34159 ft 472 kts 45°
2026-04-18 11:19 39.28788 -4.10803 34158 ft 473 kts 45°
2026-04-18 11:20 39.33435 -4.04786 34159 ft 473 kts 45°
2026-04-18 11:20 39.38082 -3.98773 34158 ft 473 kts 45°
2026-04-18 11:21 39.42731 -3.92736 34160 ft 473 kts 45°
2026-04-18 11:21 39.47371 -3.86706 34160 ft 473 kts 45°
2026-04-18 11:22 39.52010 -3.80645 34164 ft 474 kts 45°
2026-04-18 11:22 39.56640 -3.74571 34170 ft 474 kts 45°
2026-04-18 11:23 39.61275 -3.68494 34167 ft 474 kts 45°
2026-04-18 11:23 39.65914 -3.62415 34172 ft 474 kts 45°
2026-04-18 11:24 39.70550 -3.56332 34172 ft 474 kts 45°
2026-04-18 11:24 39.75182 -3.50230 34176 ft 474 kts 45°
2026-04-18 11:25 39.79759 -3.44059 34180 ft 474 kts 47°
2026-04-18 11:25 39.84055 -3.37539 34181 ft 475 kts 50°
2026-04-18 11:26 39.88223 -3.30881 34181 ft 475 kts 50°
2026-04-18 11:26 39.92437 -3.24262 34183 ft 474 kts 50°
2026-04-18 11:27 39.96707 -3.17698 34182 ft 474 kts 49°
2026-04-18 11:27 40.00975 -3.11146 34189 ft 475 kts 49°
2026-04-18 11:28 40.05225 -3.04553 34187 ft 474 kts 49°
2026-04-18 11:28 40.09460 -2.97944 34188 ft 475 kts 49°
2026-04-18 11:29 40.13736 -2.91290 34182 ft 475 kts 49°
2026-04-18 11:29 40.17973 -2.84673 34184 ft 475 kts 49°
2026-04-18 11:30 40.22204 -2.78049 34183 ft 474 kts 49°
2026-04-18 11:30 40.26434 -2.71421 34183 ft 475 kts 49°
2026-04-18 11:31 40.30661 -2.64777 34181 ft 475 kts 49°
2026-04-18 11:31 40.34899 -2.58145 34174 ft 474 kts 46°
2026-04-18 11:32 40.39981 -2.52723 34166 ft 470 kts 28°
2026-04-18 11:32 40.45811 -2.48830 34164 ft 470 kts 24°
2026-04-18 11:33 40.51659 -2.45013 34166 ft 470 kts 25°
2026-04-18 11:33 40.57515 -2.41169 34166 ft 470 kts 25°
2026-04-18 11:34 40.63368 -2.37324 34170 ft 470 kts 25°
2026-04-18 11:34 40.69215 -2.33473 34169 ft 470 kts 25°
2026-04-18 11:35 40.75059 -2.29621 34168 ft 470 kts 25°
2026-04-18 11:35 40.80918 -2.25755 34171 ft 470 kts 25°
2026-04-18 11:36 40.86767 -2.21876 34164 ft 470 kts 25°
2026-04-18 11:36 40.92607 -2.17993 34164 ft 469 kts 24°
2026-04-18 11:37 40.98437 -2.14118 34164 ft 469 kts 24°
2026-04-18 11:37 41.04273 -2.10243 34158 ft 469 kts 24°
2026-04-18 11:38 41.10002 -2.06081 34156 ft 471 kts 30°
2026-04-18 11:38 41.15538 -2.01438 34150 ft 471 kts 30°
2026-04-18 11:39 41.21085 -1.96798 34148 ft 471 kts 30°
2026-04-18 11:39 41.26638 -1.92163 34148 ft 471 kts 30°
2026-04-18 11:40 41.32182 -1.87510 34147 ft 471 kts 30°
2026-04-18 11:40 41.37720 -1.82848 34148 ft 471 kts 30°
2026-04-18 11:41 41.43259 -1.78179 34147 ft 472 kts 30°
2026-04-18 11:41 41.48810 -1.73486 34152 ft 472 kts 30°
2026-04-18 11:42 41.54357 -1.68798 34157 ft 472 kts 30°
2026-04-18 11:42 41.59909 -1.64098 34159 ft 472 kts 30°
2026-04-18 11:43 41.65455 -1.59391 34161 ft 472 kts 30°
2026-04-18 11:43 41.70996 -1.54661 34165 ft 473 kts 30°
2026-04-18 11:44 41.76541 -1.49918 34163 ft 473 kts 30°
2026-04-18 11:44 41.82091 -1.45172 34166 ft 473 kts 30°
2026-04-18 11:45 41.87676 -1.40388 34171 ft 474 kts 30°
2026-04-18 11:45 41.93193 -1.35651 34164 ft 474 kts 30°
2026-04-18 11:46 41.98749 -1.30874 34167 ft 474 kts 30°
2026-04-18 11:46 42.04339 -1.26058 34163 ft 474 kts 30°
2026-04-18 11:47 42.09875 -1.21209 34163 ft 476 kts 34°
2026-04-18 11:47 42.14982 -1.15603 34159 ft 477 kts 37°
2026-04-18 11:48 42.20109 -1.09923 34168 ft 477 kts 37°
2026-04-18 11:48 42.25271 -1.04200 34159 ft 477 kts 37°
2026-04-18 11:49 42.30363 -0.98530 34155 ft 477 kts 37°
2026-04-18 11:49 42.35484 -0.92814 34158 ft 477 kts 37°
2026-04-18 11:50 42.40632 -0.87040 34159 ft 477 kts 37°
2026-04-18 11:50 42.45201 -0.80504 34152 ft 481 kts 51°
2026-04-18 11:51 42.49281 -0.73320 34163 ft 481 kts 51°
2026-04-18 11:51 42.52676 -0.67336 34160 ft 481 kts 51°
2026-04-18 11:52 42.56753 -0.60124 34164 ft 482 kts 51°
2026-04-18 11:52 42.60825 -0.52922 34169 ft 482 kts 51°
2026-04-18 11:53 42.64907 -0.45704 34177 ft 482 kts 51°
2026-04-18 11:53 42.68977 -0.38470 34183 ft 482 kts 51°
2026-04-18 11:54 42.73044 -0.31224 34191 ft 482 kts 51°
2026-04-18 11:54 42.77093 -0.23976 34197 ft 481 kts 51°
2026-04-18 11:55 42.81154 -0.16711 34203 ft 482 kts 51°
2026-04-18 11:55 42.82510 -0.14320 34205 ft 482 kts 50°